Taunton, MA

12:25 AM EDT on September 26, 2017 (GMT -0400)
Taunton Municipal

Weather History for KTAN - August, 2014

Change the Weather History Date:

Tuesday, August 26, 2014

  Actual Average Record
Temperature  
Mean Temperature 70 °F -  
Max Temperature 87 °F 80 °F 97 °F (1948)
Min Temperature 53 °F 55 °F 36 °F (1981)
Cooling Degree Days 5    
Growing Degree Days 20 (Base 50)    
Moisture  
Dew Point 56 °F    
Average Humidity 83    
Maximum Humidity 100    
Minimum Humidity 40    
Precipitation  
Precipitation 0.00 in - - ()
Sea Level Pressure  
Sea Level Pressure 30.13 in    
Wind  
Wind Speed 1 mph (South)    
Max Wind Speed 8 mph    
Max Gust Speed -    
Visibility 6 miles    
Events Fog    
Averages and records for this station are not official NWS values.
T = Trace of Precipitation, MM = Missing Value Source: NWS Daily Summary

Daily Weather History Graph

Daily Weather History Graph

Search for Another Location

Airport or City:

Trip Planner

Search our weather history database for the weather conditions in past years. The results will help you decide how hot, cold, wet, or windy it might be!

Date:

Astronomy

Aug. 26, 2014 Rise Set
Actual Time 6:03 AM EDT 7:27 PM EDT
Civil Twilight 5:34 AM EDT 7:56 PM EDT
Nautical Twilight 4:59 AM EDT 8:31 PM EDT
Astronomical Twilight 4:22 AM EDT 9:08 PM EDT
Moon 7:02 AM EDT 7:45 PM EDT
Length of Visible Light 14h 21m
Length of Day
13h 23m
New Moon, 1% of the Moon is Illuminated
Aug 26
New Moon
Sep 2
First Quarter
Sep 8
Full
Sep 15
Last Quarter
Sep 24
New

Hourly Weather History & Observations

Time (EDT) Temp. Heat Index Dew Point Humidity Pressure Visibility Wind Dir Wind Speed Gust Speed Precip Events Conditions
12:08 AM 59.0 °F - 57.0 °F 93% 30.15 in 2.0 mi Calm Calm - N/A   Clear
12:17 AM 57.9 °F - 57.0 °F 97% 30.15 in 5.0 mi Calm Calm - N/A   Clear
12:52 AM 57.9 °F - 55.9 °F 93% 30.15 in 8.0 mi Calm Calm - N/A   Clear
1:36 AM 57.0 °F - 55.0 °F 93% 30.15 in 1.8 mi Calm Calm - N/A   Clear
1:45 AM 55.9 °F - 55.0 °F 97% 30.15 in 3.0 mi Calm Calm - N/A   Clear
1:52 AM 57.0 °F - 55.0 °F 93% 30.14 in 7.0 mi Calm Calm - N/A   Clear
1:59 AM 55.9 °F - 55.0 °F 97% 30.14 in 1.5 mi Calm Calm - N/A   Clear
2:01 AM 55.9 °F - 55.0 °F 97% 30.14 in 0.8 mi Calm Calm - N/A   Clear
2:27 AM 55.0 °F - 54.0 °F 96% 30.14 in 0.8 mi Calm Calm - N/A   Mist
2:37 AM 55.0 °F - 54.0 °F 96% 30.14 in 0.5 mi ESE 3.5 mph - N/A Fog Fog
2:43 AM 55.0 °F - 54.0 °F 96% 30.14 in 1.5 mi Calm Calm - N/A   Clear
2:52 AM 55.0 °F - 54.0 °F 96% 30.14 in 1.0 mi Calm Calm - N/A   Clear
3:04 AM 55.0 °F - 53.1 °F 93% 30.14 in 2.5 mi Calm Calm - N/A   Clear
3:13 AM 55.9 °F - 54.0 °F 93% 30.14 in 4.0 mi Calm Calm - N/A   Clear
3:22 AM 54.0 °F - 54.0 °F 100% 30.14 in 1.8 mi Calm Calm - N/A   Clear
3:25 AM 55.0 °F - 53.1 °F 93% 30.14 in 0.8 mi Calm Calm - N/A   Clear
3:52 AM 54.0 °F - 53.1 °F 97% 30.14 in 0.5 mi Calm Calm - N/A Fog Fog
4:19 AM 53.1 °F - 53.1 °F 100% 30.14 in 1.5 mi Calm Calm - N/A   Clear
4:25 AM 54.0 °F - 53.1 °F 97% 30.14 in 3.0 mi Calm Calm - N/A   Clear
4:43 AM 53.1 °F - 52.0 °F 96% 30.14 in 1.8 mi Calm Calm - N/A   Clear
4:49 AM 53.6 °F - 51.8 °F 94% 30.14 in 0.8 mi Calm Calm - N/A   Clear
5:52 AM 53.1 °F - 52.0 °F 96% 30.15 in 1.0 mi Calm Calm - N/A   Clear
6:26 AM 53.1 °F - 52.0 °F 96% 30.16 in 2.5 mi Calm Calm - N/A   Clear
6:33 AM 54.0 °F - 53.1 °F 97% 30.16 in 8.0 mi Calm Calm - N/A   Clear
6:52 AM 55.9 °F - 55.0 °F 97% 30.16 in 10.0 mi Calm Calm - N/A   Clear
8:52 AM 71.1 °F - 59.0 °F 66% 30.18 in 10.0 mi South 4.6 mph - N/A   Clear
9:52 AM 75.0 °F - 61.0 °F 62% 30.17 in 10.0 mi SSW 5.8 mph - N/A   Clear
11:52 AM 82.9 °F 83.7 °F 62.1 °F 49% 30.15 in 10.0 mi Variable 6.9 mph - N/A   Clear
12:52 PM 84.9 °F 85.4 °F 62.1 °F 46% 30.13 in 10.0 mi Variable 3.5 mph - N/A   Clear
1:52 PM 86.0 °F 85.7 °F 60.1 °F 41% 30.12 in 10.0 mi WSW 8.1 mph - N/A   Clear
2:52 PM 87.1 °F 86.7 °F 60.1 °F 40% 30.10 in 10.0 mi Variable 6.9 mph - N/A   Clear
3:52 PM 84.0 °F 84.4 °F 61.0 °F 46% 30.09 in 10.0 mi SSW 8.1 mph - N/A   Clear
4:52 PM 82.9 °F 83.2 °F 60.1 °F 46% 30.08 in 10.0 mi South 6.9 mph - N/A   Clear
5:52 PM 79.0 °F - 60.1 °F 52% 30.07 in 10.0 mi South 6.9 mph - N/A   Clear
6:52 PM 73.9 °F - 60.1 °F 62% 30.07 in 10.0 mi South 5.8 mph - N/A   Clear
7:52 PM 70.0 °F - 59.0 °F 68% 30.08 in 10.0 mi SSE 4.6 mph - N/A   Clear
8:52 PM 66.9 °F - 57.9 °F 73% 30.09 in 10.0 mi South 3.5 mph - N/A   Clear
9:52 PM 64.0 °F - 57.9 °F 80% 30.09 in 10.0 mi Calm Calm - N/A   Clear
10:52 PM 62.1 °F - 59.0 °F 90% 30.08 in 10.0 mi Calm Calm - N/A   Clear
11:52 PM 66.0 °F - 62.1 °F 87% 30.07 in 10.0 mi SW 4.6 mph - N/A   Clear